カタログに戻る

FENGYUN 1C DEB

運用中SSO
NORAD 30331·DEBRIS·🇨🇳 China

打ち上げ May 10, 1999 から Taiyuan Satellite Launch Center

Loading…

次のパス (今後24時間)

TLE

最新Source: Space-Track

元期: Sep 14, 2026, 13:47 UTC

1 30331U 99025AAS 26257.57467948  .00000154  00000-0  13348-3 0  9999
2 30331  98.9285 290.0365 0095723 326.9841 186.9223 13.98100246999739

AllMySatでFENGYUN 1C DEBをリアルタイム追跡

Download on the App Store